Location: Ostrava
(49.8330°N, 18.2830°E)
Time: 03:41:58
(UTC+02:00)

Iridium 39 - Visible Passes

Search period start: 22 April 2015 00:00
Search period end: 02 May 2015 00:00
Orbit: 776 x 779 km, 86.4° (Epoch: 21 April)

Date Brightness Start Highest point End Pass type
(mag) Time Alt. Az. Time Alt. Az. Time Alt. Az.
22 Apr 6.3 21:15:41 10° N 21:20:47 51° E 21:24:30 18° SSE visible
22 Apr 7.9 22:57:01 10° NNW 23:01:14 25° W 23:05:00 11° SW visible
23 Apr 6.9 20:42:25 10° NNE 20:47:01 31° ENE 20:51:26 11° SE visible
23 Apr 7.1 22:23:01 10° NNW 22:27:54 41° W 22:31:55 14° SSW visible
24 Apr 6.3 21:49:16 10° N 21:54:28 69° W 21:58:52 14° S visible
24 Apr 8.8 23:33:05 10° WNW 23:34:19 11° WNW 23:35:15 10° W visible
25 Apr 6.0 21:15:41 10° N 21:20:55 71° E 21:25:49 12° SSE visible
25 Apr 8.4 22:57:35 10° NW 23:01:08 18° WNW 23:04:31 10° WSW visible
26 Apr 6.5 20:42:17 10° N 20:47:13 42° ENE 20:52:10 10° SSE visible
26 Apr 7.7 22:23:19 10° NNW 22:27:51 30° W 22:32:18 10° SW visible
27 Apr 6.8 21:49:24 10° NNW 21:54:28 50° W 21:59:29 10° SSW visible
28 Apr 6.1 21:15:43 10° N 21:20:59 85° W 21:26:12 10° S visible
28 Apr 8.7 22:58:26 10° NW 23:00:58 13° WNW 23:03:16 10° W visible
29 Apr 6.2 20:42:12 10° N 20:47:22 57° E 20:52:31 10° SSE visible
29 Apr 8.2 22:23:43 10° NNW 22:27:45 22° W 22:31:38 10° SW visible
30 Apr 7.5 21:49:38 10° NNW 21:54:25 37° W 21:59:08 10° SSW visible
01 May 6.5 21:15:49 10° N 21:21:00 62° W 21:26:08 10° SSW visible
